Weather in Novodmitrovka

Ukraine / Kherson District     46°12′28″N   34°30′47″E
temp.,
°C
wind,
m/s
gust,
m/s
humid.,
%
clouds,
%
prec.,
mm/h
press.,
hPa
HPBL,
m
13 april, tue
tue1300:00+9sse358780 0.0 1021147
03:00+9ese2388100 0.0 1021112
06:00+9se3487100 0.0 1021145
09:00+10se3482100 0.0 1021337
12:00+13s226595 0.0 1021775
15:00+13sse436471 0.0 1021711
18:00+11s3374100 0.0 1020224
21:00+10se3479100 0.0 1020203
14 april, wed
wed1400:00+8ese348839 0.0 102084
03:00+7ene22933 0.0 101917
06:00+7ese23950 0.0 101838
09:00+10se45710 0.0 1018463
12:00+12se78585 0.0 1017648
15:00+14se885551 0.0 1015617
18:00+11se81170100 0.0 1014372
21:00+9sse5885100 0.1 1015191
15 april, thu
thu1500:00+9se4789100 0.6 1014228
03:00+9se3586100 0.6 1013158
06:00+9s5989100 0.6 1014343
09:00+9s5109392 4.8 1014544
12:00+12sw7975100 0.2 10151020
15:00+10wsw697888 0.3 1015740
18:00+9wsw7107973 0.0 1016529
21:00+7wsw5108118 0.0 1016341
16 april, fri
fri1600:00+7sw4780100 0.0 1016224
03:00+7ssw4775100 0.0 1016207
06:00+6ssw48855 0.0 1016222
09:00+9ssw58725 0.0 1016508
12:00+13ssw575395 0.2 10161659
15:00+12sw465665 0.6 10171250
18:00+11wsw57505 0.3 1017648
21:00+7wsw367113 0.3 1018121
17 april, sat
sat1700:00+6sw36811 0.0 1019124
03:00+5ssw35920 0.0 1019100
06:00+5ssw34925 0.0 102068
09:00+9ssw5670100 0.0 1021386
12:00+12s465629 0.0 1020882
15:00+13s3353100 0.0 1020958
18:00+12se44565 0.0 1020515
21:00+8se357685 0.0 1021102